Regional Weather Roundup
Issued by NWS

Home | Current Version | Previous Version | Graphics & Text | Print | Product List | Glossary On
Versions: 1 2 3 4 5 6 7 8 9 10 11 12 13 14 15 16 17 18 19 20 21 22 23 24 25 26 27 28 29 30 31 32 33 34 35 36 37 38 39 40 41 42 43 44 45 46 47 48 49 50
000
ASUS43 KIND 010609
RWRIN

WEATHER ROUNDUP FOR INDIANA
NATIONAL WEATHER SERVICE INDIANAPOLIS IN
200 AM EDT WED APR 01 2015

NOTE: "FAIR" INDICATES FEW OR NO CLOUDS BELOW 12,000 FEET WITH NO
SIGNIFICANT WEATHER AND/OR OBSTRUCTIONS TO VISIBILITY.

* - STATION DOES NOT REPORT WEATHER SUCH AS PRECIPITATION OR FOG.

+ - STATION NOT QUALITY CONTROLLED BY THE NATIONAL WEATHER SERVICE.
    USE DATA WITH CAUTION...ESPECIALLY DEWPOINT AND RELATIVE
    HUMIDITY OBSERVATIONS.

INZ001>003-010>013-019-020-010700-
NORTHWEST INDIANA

CITY           SKY/WX    TMP DP  RH WIND       PRES   REMARKS
GARY /AIRPORT/ CLEAR     44  30  58 S5        29.98F
KNOX *+        CLEAR     36  21  55 S7        29.98S
LA PORTE +     CLEAR     38  31  76 SW6       29.99S
6HR MIN TEMP:  35; 6HR MAX TEMP:  47;

MICHIGAN CITY+ CLEAR     41  28  60 S7        29.98S
MONTICELLO +   CLEAR     37  34  86 CALM      30.00S
6HR MIN TEMP:  37; 6HR MAX TEMP:  49;

RENSSELAER +   CLEAR     37  34  87 CALM      30.00S
VALPARAISO     CLEAR     38  31  76 SW8       29.99S
6HR MIN TEMP:  36; 6HR MAX TEMP:  48;


$$

LMZ046-743>745-010700-
SOUTHERN LAKE MICHIGAN

STATION/POSITION TIME  TEMP WIND        PRES
                       AIR  DIR/SP/G
                 (UTC) (F)  (DEG/KT/KT) (MB)
BURNS HARBOR     0600   44  190/ 11/ 14 1015.6S
MICHIGAN CITY    0600   45  150/ 13/ 17   N/A

$$

INZ004-005-014>016-021>024-010700-
NORTH CENTRAL INDIANA

CITY           SKY/WX    TMP DP  RH WIND       PRES   REMARKS
GOSHEN         CLEAR     34  29  82 SE3       29.98S
6HR MIN TEMP:  32; 6HR MAX TEMP:  45;

LOGANSPORT +   CLEAR     34  32  93 S5        30.01S WCI  30
PERU/GRISSOM   CLEAR     36  31  82 SE7       29.99S
6HR MIN TEMP:  35; 6HR MAX TEMP:  49;

ROCHESTER +    CLEAR     41  36  81 S5        30.00S
SOUTH BEND     CLEAR     40  31  70 CALM      29.98S
6HR MIN TEMP:  36; 6HR MAX TEMP:  46;

WARSAW +       CLEAR     34  32  93 CALM      29.99S

$$

INZ006>009-017-018-025>027-010700-
NORTHEAST INDIANA

CITY           SKY/WX    TMP DP  RH WIND       PRES   REMARKS
ANGOLA *+      PTCLDY    34  30  86 CALM      29.98S
AUBURN +       CLEAR     34  32  93 S3        30.00S
FORT WAYNE     CLEAR     34  32  92 S8        30.02R WCI  27
6HR MIN TEMP:  33; 6HR MAX TEMP:  48;

HUNTINGTON +   CLEAR     36  29  77 S5        30.01R
6HR MIN TEMP:  32; 6HR MAX TEMP:  47;


$$

INZ028-029-035-036-043>045-051>053-010700-
WEST CENTRAL INDIANA

CITY           SKY/WX    TMP DP  RH WIND       PRES   REMARKS
CRAWFORDSVL +  CLEAR     37  29  75 SE5       30.01R
6HR MIN TEMP:  35; 6HR MAX TEMP:  53;

GREENCASTLE +  CLEAR     41  32  70 SE3       30.03R
LAFAYETTE      CLEAR     41  33  73 CALM      30.01S
6HR MIN TEMP:  40; 6HR MAX TEMP:  51;

TERRE HAUTE    CLEAR     43  35  73 E3        30.02R
6HR MIN TEMP:  41; 6HR MAX TEMP:  59;


$$

INZ030>032-037>040-046>048-054>057-064-065-010700-
CENTRAL INDIANA

CITY           SKY/WX    TMP DP  RH WIND       PRES   REMARKS
CP ATTERBURY + CLEAR     34  32  93 CALM      30.04R
FISHERS *+     CLEAR     36  34  93 CALM      30.03R
FRANKFORT +    CLEAR     33  31  92 E7        30.03S WCI  27
6HR MIN TEMP:  32; 6HR MAX TEMP:  51;

GREENWOOD *+   CLEAR     41  32  70 CALM      30.03R
INDIANAPOLIS   CLEAR     43  32  65 SE7       30.01R
6HR MIN TEMP:  43; 6HR MAX TEMP:  54;

-EAGLE CREEK   CLEAR     39  33  79 CALM      30.02R
6HR MIN TEMP:  39; 6HR MAX TEMP:  52;

KOKOMO *+        N/A     34  28  80 SE6       30.01S WCI  29
6HR MIN TEMP:  32; 6HR MAX TEMP:  50;

MARION +       CLEAR     33  30  89 S3        30.02S
MT COMFORT *+  CLEAR     36  32  87 CALM      30.02S
SHELBYVILLE    CLEAR     37  32  82 CALM      30.02R
6HR MIN TEMP:  36; 6HR MAX TEMP:  54;

ZIONSVILLE +   CLEAR     35  32  87 CALM      30.03R
6HR MIN TEMP:  34; 6HR MAX TEMP:  51;


$$

INZ033-034-041-042-049-050-058-059-010700-
EAST CENTRAL INDIANA

CITY           SKY/WX    TMP DP  RH WIND       PRES   REMARKS
MUNCIE         CLEAR     39  34  82 S6        30.02S
6HR MIN TEMP:  35; 6HR MAX TEMP:  49;


$$

INZ060-061-067>069-081>083-085>088-010700-
SOUTHWEST INDIANA

CITY           SKY/WX    TMP DP  RH WIND       PRES   REMARKS
EVANSVILLE     CLEAR     49  37  63 CALM      30.01S
6HR MIN TEMP:  47; 6HR MAX TEMP:  66;

HUNTINGBURG *+ CLEAR     52  34  50 E5        30.02R
6HR MIN TEMP:  48; 6HR MAX TEMP:  63;

WASHINGTON +   CLEAR     44  34  66 CALM      30.01R
6HR MIN TEMP:  42; 6HR MAX TEMP:  60;


$$

INZ062-063-066-070>080-084-089>092-010700-
SOUTH CENTRAL AND SOUTHEAST INDIANA

CITY           SKY/WX    TMP DP  RH WIND       PRES   REMARKS
BLOOMINGTON    CLEAR     42  35  76 SE5       30.02R
6HR MIN TEMP:  38; 6HR MAX TEMP:  57;

MADISON *+     CLEAR     43  32  65 E5        30.05R
NORTH VERNON + CLEAR     41  36  81 CALM      30.03R
SEYMOUR +      CLEAR     39  34  81 CALM      30.03R

$$



USA.gov is the U.S. government's official web portal to all federal, state and local government web resources and services.